Hourly Weather Kozub

Today, 29 October, Thursday

Time Temperature Precipitation Wind Pressure Humidity
00:00 +10°C° 0 mm 4 mps 745 mmHg 78%
01:00 +9°C° 0 mm 3 mps 745 mmHg 83%
02:00 +9°C° 0 mm 3 mps 745 mmHg 84%
03:00 +9°C° 0 mm 3 mps 745 mmHg 86%
04:00 +8°C° 0 mm 3 mps 745 mmHg 88%
05:00 +9°C° 0 mm 3 mps 745 mmHg 87%
06:00 +9°C° 0 mm 3 mps 745 mmHg 87%
07:00 +8°C° 0 mm 4 mps 745 mmHg 87%
08:00 +9°C° 0 mm 5 mps 744 mmHg 82%
09:00 +10°C° 0 mm 5 mps 744 mmHg 76%
10:00 +12°C° 0 mm 5 mps 744 mmHg 71%
11:00 +10°C° 0.3 mm 6 mps 744 mmHg 75%
12:00 +10°C° 0.3 mm 6 mps 744 mmHg 79%
13:00 +10°C° 0.3 mm 6 mps 744 mmHg 83%
14:00 +10°C° 0.3 mm 5 mps 744 mmHg 81%
15:00 +11°C° 0.3 mm 4 mps 744 mmHg 79%
16:00 +11°C° 0.3 mm 4 mps 745 mmHg 77%
17:00 +10°C° 0.1 mm 4 mps 745 mmHg 77%
18:00 +8°C° 0.1 mm 4 mps 746 mmHg 78%
19:00 +8°C° 0.1 mm 4 mps 746 mmHg 78%
20:00 +7°C° 0 mm 4 mps 747 mmHg 79%
21:00 +7°C° 0 mm 4 mps 747 mmHg 81%
22:00 +6°C° 0 mm 4 mps 748 mmHg 82%
23:00 +6°C° 0 mm 4 mps 748 mmHg 83%

Tomorrow, 30 October, Friday

Time Temperature Precipitation Wind Pressure Humidity
00:00 +6°C° 0 mm 4 mps 748 mmHg 84%
01:00 +5°C° 0 mm 4 mps 748 mmHg 85%
02:00 +5°C° 0 mm 4 mps 748 mmHg 86%
03:00 +5°C° 0 mm 4 mps 748 mmHg 87%
04:00 +5°C° 0 mm 4 mps 748 mmHg 89%
05:00 +5°C° 0 mm 3 mps 748 mmHg 88%
06:00 +5°C° 0 mm 3 mps 748 mmHg 88%
07:00 +5°C° 0 mm 3 mps 748 mmHg 87%
08:00 +5°C° 0.1 mm 3 mps 748 mmHg 85%
09:00 +6°C° 0.1 mm 4 mps 748 mmHg 83%
10:00 +7°C° 0.1 mm 4 mps 748 mmHg 82%
11:00 +7°C° 1 mm 4 mps 747 mmHg 85%
12:00 +7°C° 1 mm 4 mps 747 mmHg 89%
13:00 +7°C° 1 mm 4 mps 746 mmHg 93%
14:00 +7°C° 1.4 mm 4 mps 746 mmHg 94%
15:00 +8°C° 1.4 mm 4 mps 746 mmHg 95%
16:00 +8°C° 1.4 mm 4 mps 746 mmHg 96%
17:00 +9°C° 0.7 mm 5 mps 746 mmHg 95%
18:00 +10°C° 0.7 mm 5 mps 746 mmHg 95%
19:00 +10°C° 0.7 mm 6 mps 746 mmHg 94%
20:00 +10°C° 0.7 mm 5 mps 746 mmHg 95%
21:00 +10°C° 0.7 mm 5 mps 747 mmHg 95%
22:00 +11°C° 0.7 mm 4 mps 747 mmHg 96%
23:00 +10°C° 0.7 mm 4 mps 747 mmHg 96%

Day after tomorrow, 31 October, Saturday

Time Temperature Precipitation Wind Pressure Humidity
00:00 +10°C° 0.7 mm 3 mps 747 mmHg 96%
01:00 +10°C° 0.7 mm 2 mps 748 mmHg 95%
02:00 +9°C° 0.3 mm 2 mps 748 mmHg 95%
03:00 +9°C° 0.3 mm 2 mps 749 mmHg 95%
04:00 +9°C° 0.3 mm 2 mps 749 mmHg 95%
05:00 +8°C° 0 mm 2 mps 750 mmHg 96%
06:00 +8°C° 0 mm 2 mps 750 mmHg 96%
07:00 +8°C° 0 mm 1 mps 751 mmHg 96%
08:00 +9°C° 0 mm 1 mps 751 mmHg 90%
09:00 +10°C° 0 mm 1 mps 752 mmHg 84%
10:00 +11°C° 0 mm 1 mps 752 mmHg 78%
11:00 +11°C° 0 mm 1 mps 752 mmHg 73%
12:00 +12°C° 0 mm 1 mps 752 mmHg 67%
13:00 +13°C° 0 mm 1 mps 752 mmHg 61%
14:00 +12°C° 0 mm 1 mps 752 mmHg 65%
15:00 +12°C° 0 mm 1 mps 752 mmHg 69%
16:00 +11°C° 0 mm 1 mps 752 mmHg 72%
17:00 +9°C° 0 mm 2 mps 752 mmHg 77%
18:00 +9°C° 0 mm 2 mps 753 mmHg 81%
19:00 +8°C° 0 mm 2 mps 753 mmHg 85%
20:00 +8°C° 0 mm 2 mps 753 mmHg 87%
21:00 +7°C° 0 mm 2 mps 753 mmHg 88%
22:00 +7°C° 0 mm 2 mps 753 mmHg 90%
23:00 +7°C° 0 mm 3 mps 753 mmHg 90%

1 November, Sunday

Time Temperature Precipitation Wind Pressure Humidity
00:00 +5°C° 0 mm 3 mps 753 mmHg 91%
01:00 +5°C° 0 mm 3 mps 753 mmHg 91%
02:00 +5°C° 0 mm 3 mps 752 mmHg 91%
03:00 +4°C° 0 mm 3 mps 752 mmHg 91%
04:00 +4°C° 0 mm 3 mps 752 mmHg 91%
05:00 +4°C° 0 mm 3 mps 752 mmHg 91%
06:00 +4°C° 0 mm 3 mps 751 mmHg 90%
07:00 +4°C° 0 mm 3 mps 751 mmHg 89%
08:00 +5°C° 0 mm 4 mps 751 mmHg 83%
09:00 +6°C° 0 mm 4 mps 751 mmHg 76%
10:00 +8°C° 0 mm 4 mps 751 mmHg 70%
11:00 +9°C° 0 mm 5 mps 751 mmHg 67%
12:00 +10°C° 0 mm 5 mps 750 mmHg 64%
13:00 +12°C° 0 mm 5 mps 750 mmHg 61%
14:00 +10°C° 0 mm 5 mps 749 mmHg 64%
15:00 +11°C° 0 mm 4 mps 749 mmHg 68%
16:00 +10°C° 0 mm 4 mps 749 mmHg 71%
17:00 +10°C° 0 mm 4 mps 749 mmHg 73%
18:00 +8°C° 0 mm 4 mps 749 mmHg 75%
19:00 +8°C° 0 mm 5 mps 749 mmHg 77%
20:00 +8°C° 0 mm 4 mps 749 mmHg 81%
21:00 +7°C° 0 mm 4 mps 749 mmHg 85%
22:00 +7°C° 0 mm 4 mps 749 mmHg 90%
23:00 +7°C° 0 mm 4 mps 748 mmHg 90%

2 November, Monday

Time Temperature Precipitation Wind Pressure Humidity
00:00 +7°C° 0 mm 4 mps 748 mmHg 91%
01:00 +7°C° 0 mm 4 mps 748 mmHg 92%
02:00 +7°C° 0 mm 4 mps 748 mmHg 91%
03:00 +7°C° 0 mm 4 mps 748 mmHg 91%
04:00 +7°C° 0 mm 4 mps 747 mmHg 90%
05:00 +7°C° 0 mm 4 mps 747 mmHg 89%
06:00 +8°C° 0 mm 4 mps 747 mmHg 88%
07:00 +8°C° 0 mm 4 mps 747 mmHg 86%
08:00 +10°C° 0 mm 4 mps 747 mmHg 83%
09:00 +11°C° 0 mm 4 mps 747 mmHg 81%
10:00 +10°C° 0 mm 5 mps 747 mmHg 78%
11:00 +12°C° 0 mm 5 mps 747 mmHg 76%
12:00 +13°C° 0 mm 5 mps 746 mmHg 75%
13:00 +13°C° 0 mm 5 mps 746 mmHg 73%
14:00 +13°C° 0.3 mm 4 mps 746 mmHg 78%
15:00 +12°C° 0.3 mm 4 mps 746 mmHg 83%
16:00 +12°C° 0.3 mm 4 mps 746 mmHg 88%
17:00 +12°C° 0 mm 4 mps 746 mmHg 88%
18:00 +11°C° 0 mm 4 mps 746 mmHg 88%
19:00 +11°C° 0 mm 3 mps 746 mmHg 88%
20:00 +11°C° 0 mm 3 mps 746 mmHg 89%
21:00 +11°C° 0 mm 3 mps 746 mmHg 90%
22:00 +11°C° 0 mm 3 mps 746 mmHg 91%
23:00 +11°C° 0 mm 3 mps 746 mmHg 91%

3 November, Tuesday

Time Temperature Precipitation Wind Pressure Humidity
00:00 +11°C° 0 mm 3 mps 747 mmHg 91%
01:00 +11°C° 0 mm 3 mps 747 mmHg 92%
02:00 +11°C° 0 mm 3 mps 747 mmHg 91%
03:00 +12°C° 0 mm 2 mps 747 mmHg 91%
04:00 +12°C° 0 mm 2 mps 747 mmHg 91%
05:00 +12°C° 0 mm 2 mps 747 mmHg 91%
06:00 +12°C° 0 mm 2 mps 747 mmHg 90%
07:00 +12°C° 0 mm 2 mps 747 mmHg 90%
08:00 +13°C° 0 mm 2 mps 747 mmHg 88%
09:00 +13°C° 0 mm 2 mps 747 mmHg 86%
10:00 +14°C° 0 mm 1 mps 748 mmHg 85%
11:00 +14°C° 0.1 mm 1 mps 748 mmHg 86%
12:00 +14°C° 0.1 mm 1 mps 748 mmHg 88%
13:00 +14°C° 0.1 mm 1 mps 748 mmHg 89%
14:00 +14°C° 0.6 mm 1 mps 748 mmHg 91%
15:00 +13°C° 0.6 mm 1 mps 748 mmHg 93%
16:00 +13°C° 0.6 mm 1 mps 748 mmHg 95%
17:00 +13°C° 0.9 mm 1 mps 748 mmHg 96%
18:00 +13°C° 0.9 mm 1 mps 749 mmHg 96%
19:00 +13°C° 0.9 mm 2 mps 749 mmHg 97%
20:00 +13°C° 0.8 mm 2 mps 749 mmHg 97%
21:00 +13°C° 0.8 mm 2 mps 749 mmHg 97%
22:00 +13°C° 0.8 mm 2 mps 750 mmHg 97%
23:00 +13°C° 0.9 mm 2 mps 750 mmHg 97%
Show more